| time (UTC) | temp F | wind direction | speed knots | gust knots | rain 1hr in | rain 24hr in | rain mn in | humidity % | barometer mb |
| 20260504044538 | 46 | 312 | 0.0 | 0.0 | 0.00 | 0.00 | 0.00 | 64 | 1018.6 |
| 20260504043044 | 46 | 312 | 0.0 | 0.0 | 0.00 | 0.00 | 0.00 | 63 | 1018.3 |
| 20260504041536 | 46 | 312 | 0.0 | 0.0 | 0.00 | 0.00 | 0.00 | 64 | 1018.3 |
| 20260504040029 | 45 | 312 | 0.0 | 1.7 | 0.00 | 0.00 | 0.00 | 64 | 1018.4 |
| 20260504034528 | 45 | 313 | 0.0 | 0.0 | 0.00 | 0.00 | 0.00 | 63 | 1018.5 |
| 20260504033030 | 45 | 301 | 0.0 | 0.0 | 0.00 | 0.00 | 0.00 | 62 | 1018.3 |
| 20260504031527 | 45 | 325 | 0.0 | 0.0 | 0.00 | 0.00 | 0.00 | 62 | 1018.4 |
| 20260504030027 | 45 | 325 | 0.0 | 0.0 | 0.00 | 0.00 | 0.00 | 63 | 1018.4 |
| 20260504024526 | 45 | 325 | 0.0 | 0.0 | 0.00 | 0.00 | 0.00 | 63 | 1018.6 |
| 20260504023027 | 45 | 325 | 0.0 | 1.7 | 0.00 | 0.00 | 0.00 | 65 | 1018.5 |
| 20260504021525 | 45 | 325 | 0.0 | 1.7 | 0.00 | 0.00 | 0.00 | 65 | 1018.5 |
| 20260504020027 | 45 | 325 | 0.0 | 0.0 | 0.00 | 0.00 | 0.00 | 66 | 1018.3 |
| 20260504014533 | 45 | 325 | 0.0 | 0.0 | 0.00 | 0.00 | 0.00 | 68 | 1018.1 |
| 20260504013024 | 45 | 325 | 0.0 | 0.0 | 0.00 | 0.00 | 0.00 | 66 | 1017.6 |
| 20260504011524 | 46 | 331 | 0.0 | 1.7 | 0.00 | 0.00 | 0.00 | 66 | 1017.7 |
| 20260504010022 | 47 | 294 | 0.0 | 0.0 | 0.00 | 0.00 | 0.00 | 65 | 1017.5 |
| 20260504004522 | 48 | 294 | 0.0 | 1.7 | 0.00 | 0.00 | 0.00 | 61 | 1017.5 |
| 20260504003028 | 50 | 279 | 0.0 | 1.7 | 0.00 | 0.00 | 0.00 | 60 | 1017.4 |
| 20260504001521 | 52 | 279 | 0.0 | 0.0 | 0.00 | 0.00 | 0.00 | 60 | 1017.4 |
| 20260504000021 | 54 | 258 | 0.0 | 1.7 | 0.00 | 0.00 | 0.00 | 55 | 1017.4 |
| 20260503234520 | 56 | 314 | 0.0 | 0.0 | 0.00 | 0.00 | 0.00 | 48 | 1017.4 |
| 20260503233019 | 58 | 313 | 0.0 | 1.7 | 0.00 | 0.00 | 0.00 | 43 | 1017.4 |
| 20260503231523 | 60 | 309 | 0.0 | 3.5 | 0.00 | 0.00 | 0.00 | 37 | 1017.4 |
| 20260503230019 | 61 | 317 | 0.9 | 2.6 | 0.00 | 0.00 | 0.00 | 33 | 1017.3 |
| 20260503224518 | 62 | 212 | 0.0 | 2.6 | 0.00 | 0.00 | 0.00 | 33 | 1017.3 |
| 20260503223020 | 63 | 119 | 1.7 | 4.3 | 0.00 | 0.00 | 0.00 | 33 | 1017.4 |
| 20260503221519 | 63 | 55 | 1.7 | 7.8 | 0.00 | 0.00 | 0.00 | 31 | 1017.6 |
| 20260503220022 | 64 | 153 | 1.7 | 7.0 | 0.00 | 0.00 | 0.00 | 32 | 1017.7 |
| 20260503214521 | 63 | 199 | 1.7 | 7.0 | 0.00 | 0.00 | 0.00 | 34 | 1017.8 |
| 20260503213015 | 63 | 266 | 1.7 | 7.0 | 0.00 | 0.00 | 0.00 | 32 | 1017.8 |
| 20260503211514 | 63 | 321 | 0.9 | 8.7 | 0.00 | 0.00 | 0.00 | 34 | 1017.8 |
| 20260503210012 | 62 | 81 | 1.7 | 7.0 | 0.00 | 0.00 | 0.00 | 32 | 1017.8 |
| 20260503204518 | 63 | 211 | 2.6 | 8.7 | 0.00 | 0.00 | 0.00 | 32 | 1017.9 |
| 20260503203010 | 63 | 116 | 1.7 | 11.3 | 0.00 | 0.00 | 0.00 | 34 | 1018.1 |
| 20260503201511 | 63 | 194 | 1.7 | 7.8 | 0.00 | 0.00 | 0.00 | 34 | 1018.3 |
| 20260503200008 | 62 | 59 | 1.7 | 7.8 | 0.00 | 0.00 | 0.00 | 34 | 1018.5 |
| 20260503194507 | 62 | 198 | 0.9 | 9.6 | 0.00 | 0.00 | 0.00 | 39 | 1018.6 |
| 20260503193006 | 61 | 186 | 1.7 | 7.8 | 0.00 | 0.00 | 0.00 | 33 | 1018.8 |
| 20260503191522 | 61 | 232 | 3.5 | 8.7 | 0.00 | 0.00 | 0.00 | 34 | 1019.2 |
| 20260503190005 | 61 | 167 | 0.9 | 7.0 | 0.00 | 0.00 | 0.00 | 34 | 1019.1 |
| 20260503184501 | 61 | 245 | 1.7 | 9.6 | 0.00 | 0.00 | 0.00 | 36 | 1019.4 |
| 20260503183100 | 59 | 133 | 3.5 | 6.1 | 0.00 | 0.00 | 0.00 | 35 | 1019.5 |
| 20260503183000 | 59 | 217 | 2.6 | 5.2 | 0.00 | 0.00 | 0.00 | 35 | 1019.5 |
| 20260503181603 | 60 | 79 | 1.7 | 8.7 | 0.00 | 0.00 | 0.00 | 39 | 1019.8 |
| 20260503180111 | 58 | 157 | 1.7 | 5.2 | 0.00 | 0.00 | 0.00 | 36 | 1019.9 |
| 20260503174555 | 58 | 207 | 3.5 | 10.4 | 0.00 | 0.00 | 0.00 | 38 | 1019.9 |
| 20260503173102 | 57 | 124 | 2.6 | 6.1 | 0.00 | 0.00 | 0.00 | 38 | 1020.2 |
| 20260503171550 | 57 | 24 | 2.6 | 7.8 | 0.00 | 0.00 | 0.00 | 43 | 1020.6 |
| 20260503081555 | 40 | 317 | 0.0 | 2.6 | 0.00 | 0.00 | 0.00 | 73 | 1018.5 |
| 20260503071552 | 39 | 285 | 0.0 | 0.0 | 0.00 | 0.00 | 0.00 | 79 | 1017.9 |